Location: Góry Miechowskie
(50.3599°N, 20.1803°E)
Time: 20:11:44
(UTC+00:00)

Meteor 1-11 - Pass Details

Date: 13 September 2024
Orbit: 841 x 884 km, 81.2° (Epoch: 09 October)

Event Time Altitude Azimuth Distance (km) Brightness Sun altitude
Rises 23:55:40 0° 342° (NNW) 3,484 8.0 -33.3°
Reaches altitude 10° 23:58:16 10° 334° (NNW) 2,546 7.1 -33.1°
Enters shadow 00:01:01 25° 315° (NW) 1,696 5.9 -32.9°
